Location: Utrecht
(52.0907°N, 5.1214°E)
Time: 19:08:12
(UTC+02:00)

SPROUT - Pass Details

Date: 04 July 2022
Orbit: 588 x 598 km, 97.9° (Epoch: 09 August)

Event Time Altitude Azimuth Distance (km) Brightness Sun altitude
Exits shadow 02:49:52 22° 202° (SSW) 1,295 ? -13.6°
Maximum altitude 02:52:08 43° 261° (W) 841 ? -13.5°
Drops below altitude 10° 02:56:08 10° 334° (NNW) 1,931 ? -13.4°
Sets 02:58:24 0° 341° (NNW) 2,839 ? -13.3°
